This is the latest recevied weather packets stored in our database for station/object N5RPG. If no packets are shown the sender has not sent any weather packets the latest 10 day(s).
| Time | Temp. | Humidity | Pressure | Rain* | Wind** | Luminosity | Snow |
|---|---|---|---|---|---|---|---|
| 1778172113 | 18.33° C | 62% | 1019.8 hPa | 0 mm | - | 378 W/m² | - |
| 1778171810 | 17.78° C | 65% | 1019.7 hPa | 0 mm | - | 688 W/m² | - |
| 1778171508 | 17.78° C | 65% | 1019.8 hPa | 0 mm | - | 637 W/m² | - |
| 1778171204 | 17.78° C | 64% | 1019.7 hPa | 0 mm | - | 363 W/m² | - |
| 1778170900 | 17.78° C | 64% | 1019.8 hPa | 0 mm | - | 409 W/m² | - |
| 1778170597 | 17.22° C | 65% | 1019.9 hPa | 0 mm | - | 465 W/m² | - |
| 1778170293 | 16.67° C | 67% | 1020 hPa | 0 mm | - | 373 W/m² | - |
| 1778169989 | 17.22° C | 65% | 1020 hPa | 0 mm | - | 316 W/m² | - |
| 1778169686 | 17.22° C | 64% | 1020.2 hPa | 0 mm | - | 309 W/m² | - |
| 1778169382 | 17.22° C | 65% | 1020.2 hPa | 0 mm | - | 375 W/m² | - |
| 1778169079 | 16.67° C | 66% | 1020.2 hPa | 0 mm | - | 337 W/m² | - |
| 1778168775 | 16.67° C | 67% | 1020 hPa | 0 mm | - | 287 W/m² | - |
| 1778168473 | 17.22° C | 65% | 1020.2 hPa | 0 mm | - | 241 W/m² | - |
| 1778168169 | 16.67° C | 66% | 1020 hPa | 0 mm | - | 346 W/m² | - |
| 1778167866 | 16.67° C | 66% | 1020 hPa | 0 mm | - | 305 W/m² | - |
| 1778167562 | 16.67° C | 67% | 1020 hPa | 0 mm | - | 122 W/m² | - |
| 1778167258 | 16.67° C | 66% | 1020.2 hPa | 0 mm | - | 141 W/m² | - |
| 1778166954 | 16.67° C | 67% | 1020.2 hPa | 0 mm | - | 258 W/m² | - |
| 1778166651 | 16.67° C | 67% | 1020.4 hPa | 0 mm | - | 252 W/m² | - |
| 1778166349 | 16.67° C | 67% | 1020 hPa | 0 mm | - | 290 W/m² | - |
| 1778166045 | 16.67° C | 65% | 1020.3 hPa | 0 mm | - | 304 W/m² | - |
| 1778165740 | 16.67° C | 68% | 1020.1 hPa | 0 mm | - | 354 W/m² | - |
| 1778165438 | 16.67° C | 68% | 1020.2 hPa | 0 mm | - | 305 W/m² | - |
| 1778165134 | 16.67° C | 67% | 1020.3 hPa | 0 mm | - | 226 W/m² | - |
| 1778164832 | 16.67° C | 69% | 1020.3 hPa | 0 mm | - | 324 W/m² | - |
* Rain latest hour (hover to see other rain measurements)
** Current wind speed in m/s (hover to see current wind gust speed)